Sidney, NE

6:15 PM MDT on October 18, 2019 (GMT -0600)
Sidney Municipal

Weather History for KSNY - September, 2019

Change the Weather History Date:

Monday, September 16, 2019

  Actual Average Record
Temperature  
Mean Temperature 72 °F -  
Max Temperature 88 °F 72 °F 97 °F (2018)
Min Temperature 57 °F 43 °F 29 °F (1965)
Cooling Degree Days 7    
Growing Degree Days 22 (Base 50)    
Moisture  
Dew Point 49 °F    
Average Humidity 49    
Maximum Humidity 75    
Minimum Humidity 20    
Precipitation  
Precipitation 0.00 in - - ()
Sea Level Pressure  
Sea Level Pressure 29.78 in    
Wind  
Wind Speed 7 mph ()    
Max Wind Speed 13 mph    
Max Gust Speed -    
Visibility 10.0 miles    
Events      
Averages and records for this station are not official NWS values.
T = Trace of Precipitation, MM = Missing Value Source: Averaged Metar Reports

Daily Weather History Graph

Daily Weather History Graph

Search for Another Location

Airport or City:

Astronomy

Sep. 16, 2019 Rise Set
Actual Time 6:33 AM MDT 6:59 PM MDT
Civil Twilight 6:05 AM MDT 7:27 PM MDT
Nautical Twilight 5:33 AM MDT 7:59 PM MDT
Astronomical Twilight 4:59 AM MDT 8:32 PM MDT
Moon 8:34 PM MDT (9/16) 8:43 AM MDT (9/16)
Length of Visible Light 13h 21m
Length of Day
12h 26m
Waning Gibbous, 94% of the Moon is Illuminated
Sep 16
Waning Gibbous
Sep 21
Last Quarter
Sep 28
New
Oct 5
First Quarter
Oct 13
Full

Hourly Weather History & Observations

Time (MDT) Temp. Dew Point Humidity Pressure Visibility Wind Dir Wind Speed Gust Speed Precip Events Conditions
12:53 AM 64.9 °F 48.9 °F 56% 29.83 in 10.0 mi South 10.4 mph - N/A   Clear
1:53 AM 64.0 °F 50.0 °F 60% 29.83 in 10.0 mi SSE 9.2 mph - N/A   Clear
2:53 AM 61.0 °F 50.0 °F 67% 29.82 in 10.0 mi SSE 6.9 mph - N/A   Clear
3:53 AM 62.1 °F 50.0 °F 65% 29.81 in 10.0 mi South 4.6 mph - N/A   Clear
4:53 AM 62.1 °F 48.9 °F 62% 29.81 in 10.0 mi South 6.9 mph - N/A   Clear
5:53 AM 60.1 °F 48.9 °F 67% 29.82 in 10.0 mi South 5.8 mph - N/A   Clear
6:53 AM 57.9 °F 50.0 °F 75% 29.85 in 10.0 mi SSE 10.4 mph - N/A   Clear
7:53 AM 64.0 °F 50.0 °F 60% 29.84 in 10.0 mi South 9.2 mph - N/A   Clear
8:53 AM 68.0 °F 51.1 °F 55% 29.83 in 10.0 mi South 6.9 mph - N/A   Clear
9:53 AM 75.9 °F 50.0 °F 40% 29.80 in 10.0 mi South 12.7 mph - N/A   Clear
10:53 AM 77.0 °F 48.9 °F 37% 29.79 in 10.0 mi South 10.4 mph - N/A   Clear
11:53 AM 78.1 °F 46.0 °F 32% 29.78 in 10.0 mi SSW 11.5 mph - N/A   Clear
12:53 PM 80.1 °F 48.0 °F 32% 29.76 in 10.0 mi WSW 8.1 mph - N/A   Clear
1:53 PM 84.0 °F 48.9 °F 29% 29.74 in 10.0 mi Variable 4.6 mph - N/A   Clear
2:53 PM 84.9 °F 46.0 °F 26% 29.73 in 10.0 mi Variable 3.5 mph - N/A   Clear
3:53 PM 87.1 °F 45.0 °F 23% 29.72 in 10.0 mi WNW 6.9 mph - N/A   Clear
4:53 PM 86.0 °F 42.1 °F 21% 29.72 in 10.0 mi Calm Calm - N/A   Clear
5:53 PM 84.9 °F 39.0 °F 20% 29.72 in 10.0 mi Calm Calm - N/A   Clear
6:53 PM 73.0 °F 51.1 °F 46% 29.75 in 10.0 mi South 5.8 mph - N/A   Clear
7:53 PM 64.9 °F 52.0 °F 63% 29.77 in 10.0 mi SSW 6.9 mph - N/A   Clear
8:53 PM 66.0 °F 52.0 °F 60% 29.77 in 10.0 mi SSE 8.1 mph - N/A   Clear
9:53 PM 68.0 °F 52.0 °F 56% 29.75 in 10.0 mi South 11.5 mph - N/A   Clear
10:53 PM 63.0 °F 53.1 °F 70% 29.76 in 10.0 mi South 10.4 mph - N/A   Clear
11:53 PM 64.9 °F 52.0 °F 63% 29.74 in 10.0 mi SSW 9.2 mph - N/A   Clear